Home > Weather > Tananger > Past weeks

Flag for Norway Weather for the Past 2 Weeks in Tananger, Norway

Now
34 °F

Sunny.


Feels Like: 28 °F
Forecast: 27 / 33 °F
Wind: 7 mph from North

Location: Stavanger / Sola

Current Time: Feb 12, 2016 at 5:46:20 PM

Latest Report: Feb 12, 2016 at 4:50 PM


Visibility: 10 mi

Pressure: 29.62 "Hg

Humidity: 48%

Dew point: 16 °F

Location of TanangerLocation

Historic Weather in Tananger — Graph

°F

Tananger Temperature Yesterday

Maximum temperature yesterday: 46 °F (at 1:50 PM)
Minimum temperature yesterday: 30 °F (at 9:50 PM)
Average temperature yesterday: 37 °F

High & Low Weather Summary for the Past Weeks

 TemperatureHumidityPressure
High50 °F (Jan 29, 12:50 PM)100% (Jan 29, 1:50 AM)30.04 "Hg (Jan 29, 1:50 AM)
Low23 °F (Feb 12, 6:20 AM)35% (Feb 12, 3:20 PM)28.56 "Hg (Feb 8, 8:50 AM)
Average41 °F82%29.28 "Hg
* Reported Jan 28 4:20 PM — Feb 12 4:20 PM, Tananger, Weather by CustomWeather, © 2016

Note: Actual official high and low records may vary slightly from our data, if they occured in-between our weather recording intervals... More about our weather records

Advertising

Tananger Weather History for the Previous 24 Hours

 ConditionsComfort  
Time TempWeatherWind HumidityBarometerVisibility
4:20 PM
Fri, Feb 12
34 °FSunny.8 mph51%29.62 "Hg10 mi
3:50 PM36 °FSunny.8 mph41%29.62 "Hg10 mi
3:20 PM37 °FPassing clouds.3 mph35%29.62 "HgN/A
2:50 PM36 °FPassing clouds.3 mph41%29.62 "HgN/A
2:20 PM36 °FPassing clouds.7 mph41%29.65 "HgN/A
1:50 PM36 °FPassing clouds.6 mph41%29.65 "HgN/A
1:20 PM36 °FSunny.8 mph38%29.65 "Hg10 mi
12:50 PM34 °FSunny.9 mph44%29.65 "Hg10 mi
12:20 PM34 °FSunny.7 mph48%29.68 "Hg10 mi
11:50 AM34 °FSunny.9 mph44%29.68 "Hg10 mi
11:20 AM34 °FSunny.9 mph44%29.68 "Hg10 mi
10:50 AM32 °FSunny.5 mph47%29.68 "Hg10 mi
10:20 AM32 °FSunny.5 mph55%29.68 "Hg10 mi
9:50 AM30 °FSunny.2 mph55%29.68 "Hg10 mi
9:20 AM28 °FSunny.1 mph59%29.68 "Hg10 mi
8:50 AM27 °FSunny.1 mph64%29.68 "Hg10 mi
8:20 AM25 °FSunny.1 mph63%29.68 "Hg10 mi
7:50 AM27 °FClear.1 mph59%29.68 "Hg10 mi
7:20 AM27 °FClear.1 mph59%29.68 "Hg10 mi
6:50 AM25 °FPassing clouds.3 mph63%29.68 "HgN/A
6:20 AM23 °FClear.1 mph68%29.68 "Hg10 mi
5:50 AM27 °FClear.1 mph59%29.68 "Hg10 mi
4:50 AM27 °FClear.2 mph59%29.68 "Hg10 mi
3:50 AM28 °FClear.5 mph55%29.68 "Hg10 mi
2:50 AM28 °FClear.3 mph55%29.68 "Hg10 mi
1:50 AM32 °FClear.No wind51%29.68 "Hg10 mi
12:50 AM30 °FClear.2 mph75%29.65 "Hg10 mi
12:20 AM28 °FClear.3 mph74%29.65 "Hg10 mi
11:50 PM
Thu, Feb 11
30 °FClear.1 mph75%29.65 "Hg10 mi
10:20 PM30 °FPassing clouds.1 mph69%29.65 "HgN/A
9:50 PM30 °FPassing clouds.No wind75%29.62 "HgN/A
9:20 PM32 °FPassing clouds.2 mph69%29.62 "HgN/A
8:50 PM32 °FPassing clouds.3 mph64%29.62 "HgN/A
8:20 PM34 °FPassing clouds.1 mph60%29.62 "HgN/A
7:50 PM32 °FPassing clouds.6 mph64%29.62 "HgN/A
7:20 PM34 °FPassing clouds.6 mph60%29.59 "HgN/A
6:50 PM34 °FPassing clouds.5 mph60%29.59 "HgN/A
6:20 PM34 °FPassing clouds.6 mph60%29.59 "HgN/A
5:50 PM36 °FPassing clouds.5 mph56%29.59 "HgN/A
5:20 PM37 °FScattered clouds.6 mph60%29.56 "HgN/A
Weather by CustomWeather, © 2016

See weather overviewHow to use our weather pages